<?xml version="1.0"?>
<gpx xmlns="http://www.topografix.com/GPX/1/1" xmlns:xsi="http://www.w3.org/2001/XMLSchema-instance" version="1.1" creator="GPX RubyGem 1.0.0 -- http://dougfales.github.io/gpx/" xsi:schemaLocation="http://www.topografix.com/GPX/1/1 http://www.topografix.com/GPX/1/1/gpx.xsd">
  <metadata>
    <name/>
    <time>2026-05-08T04:17:43+00:00</time>
    <bound minlat="90.0" minlon="180.0" maxlat="-90.0" maxlon="-180.0"/>
  </metadata>
  <trk>
    <name/>
    <trkseg>
      <trkpt lat="42.131153" lon="1.824669">
        <time>1970-01-01T00:00:00+00:00</time>
        <ele>1203.0</ele>
      </trkpt>
      <trkpt lat="42.131164" lon="1.824769">
        <time>1970-01-01T00:00:00+00:00</time>
        <ele>1202.0</ele>
      </trkpt>
      <trkpt lat="42.131164" lon="1.824876">
        <time>1970-01-01T00:00:00+00:00</time>
        <ele>1200.0</ele>
      </trkpt>
      <trkpt lat="42.131107" lon="1.824925">
        <time>1970-01-01T00:00:00+00:00</time>
        <ele>1200.0</ele>
      </trkpt>
      <trkpt lat="42.13105" lon="1.82502">
        <time>1970-01-01T00:00:00+00:00</time>
        <ele>1199.0</ele>
      </trkpt>
      <trkpt lat="42.130987" lon="1.825341">
        <time>1970-01-01T00:00:00+00:00</time>
        <ele>1197.0</ele>
      </trkpt>
      <trkpt lat="42.130887" lon="1.82549">
        <time>1970-01-01T00:00:00+00:00</time>
        <ele>1196.0</ele>
      </trkpt>
      <trkpt lat="42.130587" lon="1.825614">
        <time>1970-01-01T00:00:00+00:00</time>
        <ele>1197.0</ele>
      </trkpt>
      <trkpt lat="42.130459" lon="1.825747">
        <time>1970-01-01T00:00:00+00:00</time>
        <ele>1196.0</ele>
      </trkpt>
      <trkpt lat="42.130358" lon="1.825787">
        <time>1970-01-01T00:00:00+00:00</time>
        <ele>1195.0</ele>
      </trkpt>
      <trkpt lat="42.130261" lon="1.82576">
        <time>1970-01-01T00:00:00+00:00</time>
        <ele>1195.0</ele>
      </trkpt>
      <trkpt lat="42.129958" lon="1.825487">
        <time>1970-01-01T00:00:00+00:00</time>
        <ele>1195.0</ele>
      </trkpt>
      <trkpt lat="42.12983" lon="1.825404">
        <time>1970-01-01T00:00:00+00:00</time>
        <ele>1196.0</ele>
      </trkpt>
      <trkpt lat="42.129702" lon="1.825352">
        <time>1970-01-01T00:00:00+00:00</time>
        <ele>1197.0</ele>
      </trkpt>
      <trkpt lat="42.129438" lon="1.825459">
        <time>1970-01-01T00:00:00+00:00</time>
        <ele>1198.0</ele>
      </trkpt>
      <trkpt lat="42.129191" lon="1.825623">
        <time>1970-01-01T00:00:00+00:00</time>
        <ele>1196.0</ele>
      </trkpt>
      <trkpt lat="42.128935" lon="1.825924">
        <time>1970-01-01T00:00:00+00:00</time>
        <ele>1192.0</ele>
      </trkpt>
      <trkpt lat="42.128732" lon="1.82734">
        <time>1970-01-01T00:00:00+00:00</time>
        <ele>1189.0</ele>
      </trkpt>
      <trkpt lat="42.128615" lon="1.828983">
        <time>1970-01-01T00:00:00+00:00</time>
        <ele>1183.0</ele>
      </trkpt>
      <trkpt lat="42.128328" lon="1.829554">
        <time>1970-01-01T00:00:00+00:00</time>
        <ele>1185.0</ele>
      </trkpt>
      <trkpt lat="42.127986" lon="1.830685">
        <time>1970-01-01T00:00:00+00:00</time>
        <ele>1177.0</ele>
      </trkpt>
      <trkpt lat="42.127964" lon="1.830856">
        <time>1970-01-01T00:00:00+00:00</time>
        <ele>1175.0</ele>
      </trkpt>
      <trkpt lat="42.128002" lon="1.831196">
        <time>1970-01-01T00:00:00+00:00</time>
        <ele>1170.0</ele>
      </trkpt>
      <trkpt lat="42.127974" lon="1.831323">
        <time>1970-01-01T00:00:00+00:00</time>
        <ele>1169.0</ele>
      </trkpt>
      <trkpt lat="42.127689" lon="1.831644">
        <time>1970-01-01T00:00:00+00:00</time>
        <ele>1173.0</ele>
      </trkpt>
      <trkpt lat="42.127603" lon="1.831853">
        <time>1970-01-01T00:00:00+00:00</time>
        <ele>1173.0</ele>
      </trkpt>
      <trkpt lat="42.127601" lon="1.831991">
        <time>1970-01-01T00:00:00+00:00</time>
        <ele>1171.0</ele>
      </trkpt>
      <trkpt lat="42.127861" lon="1.832759">
        <time>1970-01-01T00:00:00+00:00</time>
        <ele>1159.0</ele>
      </trkpt>
      <trkpt lat="42.127924" lon="1.833113">
        <time>1970-01-01T00:00:00+00:00</time>
        <ele>1157.0</ele>
      </trkpt>
      <trkpt lat="42.12778" lon="1.833222">
        <time>1970-01-01T00:00:00+00:00</time>
        <ele>1163.0</ele>
      </trkpt>
      <trkpt lat="42.127726" lon="1.833207">
        <time>1970-01-01T00:00:00+00:00</time>
        <ele>1165.0</ele>
      </trkpt>
      <trkpt lat="42.127515" lon="1.833313">
        <time>1970-01-01T00:00:00+00:00</time>
        <ele>1174.0</ele>
      </trkpt>
      <trkpt lat="42.127063" lon="1.833494">
        <time>1970-01-01T00:00:00+00:00</time>
        <ele>1186.0</ele>
      </trkpt>
      <trkpt lat="42.126929" lon="1.833484">
        <time>1970-01-01T00:00:00+00:00</time>
        <ele>1190.0</ele>
      </trkpt>
      <trkpt lat="42.126822" lon="1.833426">
        <time>1970-01-01T00:00:00+00:00</time>
        <ele>1193.0</ele>
      </trkpt>
      <trkpt lat="42.126748" lon="1.833333">
        <time>1970-01-01T00:00:00+00:00</time>
        <ele>1196.0</ele>
      </trkpt>
      <trkpt lat="42.126636" lon="1.833104">
        <time>1970-01-01T00:00:00+00:00</time>
        <ele>1203.0</ele>
      </trkpt>
      <trkpt lat="42.126555" lon="1.832872">
        <time>1970-01-01T00:00:00+00:00</time>
        <ele>1209.0</ele>
      </trkpt>
      <trkpt lat="42.12649" lon="1.832736">
        <time>1970-01-01T00:00:00+00:00</time>
        <ele>1212.0</ele>
      </trkpt>
      <trkpt lat="42.126251" lon="1.832562">
        <time>1970-01-01T00:00:00+00:00</time>
        <ele>1220.0</ele>
      </trkpt>
      <trkpt lat="42.126176" lon="1.83256">
        <time>1970-01-01T00:00:00+00:00</time>
        <ele>1223.0</ele>
      </trkpt>
      <trkpt lat="42.125945" lon="1.832638">
        <time>1970-01-01T00:00:00+00:00</time>
        <ele>1234.0</ele>
      </trkpt>
      <trkpt lat="42.125864" lon="1.832623">
        <time>1970-01-01T00:00:00+00:00</time>
        <ele>1238.0</ele>
      </trkpt>
      <trkpt lat="42.125736" lon="1.83254">
        <time>1970-01-01T00:00:00+00:00</time>
        <ele>1245.0</ele>
      </trkpt>
      <trkpt lat="42.125631" lon="1.832519">
        <time>1970-01-01T00:00:00+00:00</time>
        <ele>1249.0</ele>
      </trkpt>
      <trkpt lat="42.125317" lon="1.832615">
        <time>1970-01-01T00:00:00+00:00</time>
        <ele>1260.0</ele>
      </trkpt>
      <trkpt lat="42.124905" lon="1.832562">
        <time>1970-01-01T00:00:00+00:00</time>
        <ele>1274.0</ele>
      </trkpt>
      <trkpt lat="42.124877" lon="1.832519">
        <time>1970-01-01T00:00:00+00:00</time>
        <ele>1275.0</ele>
      </trkpt>
      <trkpt lat="42.124817" lon="1.832207">
        <time>1970-01-01T00:00:00+00:00</time>
        <ele>1281.0</ele>
      </trkpt>
      <trkpt lat="42.124783" lon="1.832179">
        <time>1970-01-01T00:00:00+00:00</time>
        <ele>1282.0</ele>
      </trkpt>
      <trkpt lat="42.12471" lon="1.832159">
        <time>1970-01-01T00:00:00+00:00</time>
        <ele>1286.0</ele>
      </trkpt>
      <trkpt lat="42.124438" lon="1.832242">
        <time>1970-01-01T00:00:00+00:00</time>
        <ele>1296.0</ele>
      </trkpt>
      <trkpt lat="42.124359" lon="1.832212">
        <time>1970-01-01T00:00:00+00:00</time>
        <ele>1299.0</ele>
      </trkpt>
      <trkpt lat="42.124249" lon="1.832061">
        <time>1970-01-01T00:00:00+00:00</time>
        <ele>1305.0</ele>
      </trkpt>
      <trkpt lat="42.124144" lon="1.832006">
        <time>1970-01-01T00:00:00+00:00</time>
        <ele>1310.0</ele>
      </trkpt>
      <trkpt lat="42.123984" lon="1.831832">
        <time>1970-01-01T00:00:00+00:00</time>
        <ele>1319.0</ele>
      </trkpt>
      <trkpt lat="42.123723" lon="1.831757">
        <time>1970-01-01T00:00:00+00:00</time>
        <ele>1330.0</ele>
      </trkpt>
      <trkpt lat="42.123568" lon="1.831752">
        <time>1970-01-01T00:00:00+00:00</time>
        <ele>1338.0</ele>
      </trkpt>
      <trkpt lat="42.123316" lon="1.83171">
        <time>1970-01-01T00:00:00+00:00</time>
        <ele>1350.0</ele>
      </trkpt>
      <trkpt lat="42.122561" lon="1.831904">
        <time>1970-01-01T00:00:00+00:00</time>
        <ele>1375.0</ele>
      </trkpt>
      <trkpt lat="42.12235" lon="1.83187">
        <time>1970-01-01T00:00:00+00:00</time>
        <ele>1385.0</ele>
      </trkpt>
      <trkpt lat="42.122142" lon="1.831973">
        <time>1970-01-01T00:00:00+00:00</time>
        <ele>1388.0</ele>
      </trkpt>
      <trkpt lat="42.121967" lon="1.831948">
        <time>1970-01-01T00:00:00+00:00</time>
        <ele>1393.0</ele>
      </trkpt>
      <trkpt lat="42.121875" lon="1.831965">
        <time>1970-01-01T00:00:00+00:00</time>
        <ele>1393.0</ele>
      </trkpt>
      <trkpt lat="42.121754" lon="1.832051">
        <time>1970-01-01T00:00:00+00:00</time>
        <ele>1390.0</ele>
      </trkpt>
      <trkpt lat="42.121678" lon="1.832052">
        <time>1970-01-01T00:00:00+00:00</time>
        <ele>1387.0</ele>
      </trkpt>
      <trkpt lat="42.121718" lon="1.831945">
        <time>1970-01-01T00:00:00+00:00</time>
        <ele>1392.0</ele>
      </trkpt>
      <trkpt lat="42.121642" lon="1.831557">
        <time>1970-01-01T00:00:00+00:00</time>
        <ele>1399.0</ele>
      </trkpt>
      <trkpt lat="42.12162" lon="1.831368">
        <time>1970-01-01T00:00:00+00:00</time>
        <ele>1405.0</ele>
      </trkpt>
      <trkpt lat="42.121656" lon="1.831031">
        <time>1970-01-01T00:00:00+00:00</time>
        <ele>1421.0</ele>
      </trkpt>
      <trkpt lat="42.121623" lon="1.830624">
        <time>1970-01-01T00:00:00+00:00</time>
        <ele>1435.0</ele>
      </trkpt>
      <trkpt lat="42.121508" lon="1.830184">
        <time>1970-01-01T00:00:00+00:00</time>
        <ele>1447.0</ele>
      </trkpt>
      <trkpt lat="42.121456" lon="1.829897">
        <time>1970-01-01T00:00:00+00:00</time>
        <ele>1455.0</ele>
      </trkpt>
      <trkpt lat="42.121457" lon="1.829831">
        <time>1970-01-01T00:00:00+00:00</time>
        <ele>1457.0</ele>
      </trkpt>
      <trkpt lat="42.121403" lon="1.829698">
        <time>1970-01-01T00:00:00+00:00</time>
        <ele>1459.0</ele>
      </trkpt>
      <trkpt lat="42.121365" lon="1.829678">
        <time>1970-01-01T00:00:00+00:00</time>
        <ele>1457.0</ele>
      </trkpt>
      <trkpt lat="42.121378" lon="1.82956">
        <time>1970-01-01T00:00:00+00:00</time>
        <ele>1461.0</ele>
      </trkpt>
      <trkpt lat="42.121364" lon="1.82951">
        <time>1970-01-01T00:00:00+00:00</time>
        <ele>1461.0</ele>
      </trkpt>
      <trkpt lat="42.121336" lon="1.829538">
        <time>1970-01-01T00:00:00+00:00</time>
        <ele>1459.0</ele>
      </trkpt>
      <trkpt lat="42.121336" lon="1.829538">
        <time>1970-01-01T00:00:00+00:00</time>
        <ele>1459.0</ele>
      </trkpt>
      <trkpt lat="42.121364" lon="1.82951">
        <time>1970-01-01T00:00:00+00:00</time>
        <ele>1461.0</ele>
      </trkpt>
      <trkpt lat="42.121378" lon="1.82956">
        <time>1970-01-01T00:00:00+00:00</time>
        <ele>1461.0</ele>
      </trkpt>
      <trkpt lat="42.121365" lon="1.829678">
        <time>1970-01-01T00:00:00+00:00</time>
        <ele>1457.0</ele>
      </trkpt>
      <trkpt lat="42.121403" lon="1.829698">
        <time>1970-01-01T00:00:00+00:00</time>
        <ele>1459.0</ele>
      </trkpt>
      <trkpt lat="42.121457" lon="1.829831">
        <time>1970-01-01T00:00:00+00:00</time>
        <ele>1457.0</ele>
      </trkpt>
      <trkpt lat="42.121456" lon="1.829897">
        <time>1970-01-01T00:00:00+00:00</time>
        <ele>1455.0</ele>
      </trkpt>
      <trkpt lat="42.121508" lon="1.830184">
        <time>1970-01-01T00:00:00+00:00</time>
        <ele>1447.0</ele>
      </trkpt>
      <trkpt lat="42.121623" lon="1.830624">
        <time>1970-01-01T00:00:00+00:00</time>
        <ele>1435.0</ele>
      </trkpt>
      <trkpt lat="42.121656" lon="1.831031">
        <time>1970-01-01T00:00:00+00:00</time>
        <ele>1421.0</ele>
      </trkpt>
      <trkpt lat="42.12162" lon="1.831368">
        <time>1970-01-01T00:00:00+00:00</time>
        <ele>1405.0</ele>
      </trkpt>
      <trkpt lat="42.121642" lon="1.831557">
        <time>1970-01-01T00:00:00+00:00</time>
        <ele>1399.0</ele>
      </trkpt>
      <trkpt lat="42.121718" lon="1.831945">
        <time>1970-01-01T00:00:00+00:00</time>
        <ele>1392.0</ele>
      </trkpt>
      <trkpt lat="42.121678" lon="1.832052">
        <time>1970-01-01T00:00:00+00:00</time>
        <ele>1387.0</ele>
      </trkpt>
      <trkpt lat="42.121754" lon="1.832051">
        <time>1970-01-01T00:00:00+00:00</time>
        <ele>1390.0</ele>
      </trkpt>
      <trkpt lat="42.121875" lon="1.831965">
        <time>1970-01-01T00:00:00+00:00</time>
        <ele>1393.0</ele>
      </trkpt>
      <trkpt lat="42.121967" lon="1.831948">
        <time>1970-01-01T00:00:00+00:00</time>
        <ele>1393.0</ele>
      </trkpt>
      <trkpt lat="42.122142" lon="1.831973">
        <time>1970-01-01T00:00:00+00:00</time>
        <ele>1388.0</ele>
      </trkpt>
      <trkpt lat="42.12235" lon="1.83187">
        <time>1970-01-01T00:00:00+00:00</time>
        <ele>1385.0</ele>
      </trkpt>
      <trkpt lat="42.122561" lon="1.831904">
        <time>1970-01-01T00:00:00+00:00</time>
        <ele>1375.0</ele>
      </trkpt>
      <trkpt lat="42.123316" lon="1.83171">
        <time>1970-01-01T00:00:00+00:00</time>
        <ele>1350.0</ele>
      </trkpt>
      <trkpt lat="42.123568" lon="1.831752">
        <time>1970-01-01T00:00:00+00:00</time>
        <ele>1338.0</ele>
      </trkpt>
      <trkpt lat="42.123723" lon="1.831757">
        <time>1970-01-01T00:00:00+00:00</time>
        <ele>1330.0</ele>
      </trkpt>
      <trkpt lat="42.123984" lon="1.831832">
        <time>1970-01-01T00:00:00+00:00</time>
        <ele>1319.0</ele>
      </trkpt>
      <trkpt lat="42.124144" lon="1.832006">
        <time>1970-01-01T00:00:00+00:00</time>
        <ele>1310.0</ele>
      </trkpt>
      <trkpt lat="42.124249" lon="1.832061">
        <time>1970-01-01T00:00:00+00:00</time>
        <ele>1305.0</ele>
      </trkpt>
      <trkpt lat="42.124359" lon="1.832212">
        <time>1970-01-01T00:00:00+00:00</time>
        <ele>1299.0</ele>
      </trkpt>
      <trkpt lat="42.124438" lon="1.832242">
        <time>1970-01-01T00:00:00+00:00</time>
        <ele>1296.0</ele>
      </trkpt>
      <trkpt lat="42.12471" lon="1.832159">
        <time>1970-01-01T00:00:00+00:00</time>
        <ele>1286.0</ele>
      </trkpt>
      <trkpt lat="42.124783" lon="1.832179">
        <time>1970-01-01T00:00:00+00:00</time>
        <ele>1282.0</ele>
      </trkpt>
      <trkpt lat="42.124817" lon="1.832207">
        <time>1970-01-01T00:00:00+00:00</time>
        <ele>1281.0</ele>
      </trkpt>
      <trkpt lat="42.124877" lon="1.832519">
        <time>1970-01-01T00:00:00+00:00</time>
        <ele>1275.0</ele>
      </trkpt>
      <trkpt lat="42.124905" lon="1.832562">
        <time>1970-01-01T00:00:00+00:00</time>
        <ele>1274.0</ele>
      </trkpt>
      <trkpt lat="42.125317" lon="1.832615">
        <time>1970-01-01T00:00:00+00:00</time>
        <ele>1260.0</ele>
      </trkpt>
      <trkpt lat="42.125631" lon="1.832519">
        <time>1970-01-01T00:00:00+00:00</time>
        <ele>1249.0</ele>
      </trkpt>
      <trkpt lat="42.125736" lon="1.83254">
        <time>1970-01-01T00:00:00+00:00</time>
        <ele>1245.0</ele>
      </trkpt>
      <trkpt lat="42.125864" lon="1.832623">
        <time>1970-01-01T00:00:00+00:00</time>
        <ele>1238.0</ele>
      </trkpt>
      <trkpt lat="42.125945" lon="1.832638">
        <time>1970-01-01T00:00:00+00:00</time>
        <ele>1234.0</ele>
      </trkpt>
      <trkpt lat="42.126176" lon="1.83256">
        <time>1970-01-01T00:00:00+00:00</time>
        <ele>1223.0</ele>
      </trkpt>
      <trkpt lat="42.126251" lon="1.832562">
        <time>1970-01-01T00:00:00+00:00</time>
        <ele>1220.0</ele>
      </trkpt>
      <trkpt lat="42.12649" lon="1.832736">
        <time>1970-01-01T00:00:00+00:00</time>
        <ele>1212.0</ele>
      </trkpt>
      <trkpt lat="42.126555" lon="1.832872">
        <time>1970-01-01T00:00:00+00:00</time>
        <ele>1209.0</ele>
      </trkpt>
      <trkpt lat="42.126636" lon="1.833104">
        <time>1970-01-01T00:00:00+00:00</time>
        <ele>1203.0</ele>
      </trkpt>
      <trkpt lat="42.126748" lon="1.833333">
        <time>1970-01-01T00:00:00+00:00</time>
        <ele>1196.0</ele>
      </trkpt>
      <trkpt lat="42.126822" lon="1.833426">
        <time>1970-01-01T00:00:00+00:00</time>
        <ele>1193.0</ele>
      </trkpt>
      <trkpt lat="42.126929" lon="1.833484">
        <time>1970-01-01T00:00:00+00:00</time>
        <ele>1190.0</ele>
      </trkpt>
      <trkpt lat="42.127063" lon="1.833494">
        <time>1970-01-01T00:00:00+00:00</time>
        <ele>1186.0</ele>
      </trkpt>
      <trkpt lat="42.127515" lon="1.833313">
        <time>1970-01-01T00:00:00+00:00</time>
        <ele>1174.0</ele>
      </trkpt>
      <trkpt lat="42.127726" lon="1.833207">
        <time>1970-01-01T00:00:00+00:00</time>
        <ele>1165.0</ele>
      </trkpt>
      <trkpt lat="42.12778" lon="1.833222">
        <time>1970-01-01T00:00:00+00:00</time>
        <ele>1163.0</ele>
      </trkpt>
      <trkpt lat="42.127924" lon="1.833113">
        <time>1970-01-01T00:00:00+00:00</time>
        <ele>1157.0</ele>
      </trkpt>
      <trkpt lat="42.127861" lon="1.832759">
        <time>1970-01-01T00:00:00+00:00</time>
        <ele>1159.0</ele>
      </trkpt>
      <trkpt lat="42.127601" lon="1.831991">
        <time>1970-01-01T00:00:00+00:00</time>
        <ele>1171.0</ele>
      </trkpt>
      <trkpt lat="42.127603" lon="1.831853">
        <time>1970-01-01T00:00:00+00:00</time>
        <ele>1173.0</ele>
      </trkpt>
      <trkpt lat="42.127689" lon="1.831644">
        <time>1970-01-01T00:00:00+00:00</time>
        <ele>1173.0</ele>
      </trkpt>
      <trkpt lat="42.127974" lon="1.831323">
        <time>1970-01-01T00:00:00+00:00</time>
        <ele>1169.0</ele>
      </trkpt>
      <trkpt lat="42.128002" lon="1.831196">
        <time>1970-01-01T00:00:00+00:00</time>
        <ele>1170.0</ele>
      </trkpt>
      <trkpt lat="42.127964" lon="1.830856">
        <time>1970-01-01T00:00:00+00:00</time>
        <ele>1175.0</ele>
      </trkpt>
      <trkpt lat="42.127986" lon="1.830685">
        <time>1970-01-01T00:00:00+00:00</time>
        <ele>1177.0</ele>
      </trkpt>
      <trkpt lat="42.128328" lon="1.829554">
        <time>1970-01-01T00:00:00+00:00</time>
        <ele>1185.0</ele>
      </trkpt>
      <trkpt lat="42.128615" lon="1.828983">
        <time>1970-01-01T00:00:00+00:00</time>
        <ele>1183.0</ele>
      </trkpt>
      <trkpt lat="42.128732" lon="1.82734">
        <time>1970-01-01T00:00:00+00:00</time>
        <ele>1189.0</ele>
      </trkpt>
      <trkpt lat="42.128935" lon="1.825924">
        <time>1970-01-01T00:00:00+00:00</time>
        <ele>1192.0</ele>
      </trkpt>
      <trkpt lat="42.129191" lon="1.825623">
        <time>1970-01-01T00:00:00+00:00</time>
        <ele>1196.0</ele>
      </trkpt>
      <trkpt lat="42.129438" lon="1.825459">
        <time>1970-01-01T00:00:00+00:00</time>
        <ele>1198.0</ele>
      </trkpt>
      <trkpt lat="42.129702" lon="1.825352">
        <time>1970-01-01T00:00:00+00:00</time>
        <ele>1197.0</ele>
      </trkpt>
      <trkpt lat="42.12983" lon="1.825404">
        <time>1970-01-01T00:00:00+00:00</time>
        <ele>1196.0</ele>
      </trkpt>
      <trkpt lat="42.129958" lon="1.825487">
        <time>1970-01-01T00:00:00+00:00</time>
        <ele>1195.0</ele>
      </trkpt>
      <trkpt lat="42.130261" lon="1.82576">
        <time>1970-01-01T00:00:00+00:00</time>
        <ele>1195.0</ele>
      </trkpt>
      <trkpt lat="42.130358" lon="1.825787">
        <time>1970-01-01T00:00:00+00:00</time>
        <ele>1195.0</ele>
      </trkpt>
      <trkpt lat="42.130459" lon="1.825747">
        <time>1970-01-01T00:00:00+00:00</time>
        <ele>1196.0</ele>
      </trkpt>
      <trkpt lat="42.130587" lon="1.825614">
        <time>1970-01-01T00:00:00+00:00</time>
        <ele>1197.0</ele>
      </trkpt>
      <trkpt lat="42.130887" lon="1.82549">
        <time>1970-01-01T00:00:00+00:00</time>
        <ele>1196.0</ele>
      </trkpt>
      <trkpt lat="42.130987" lon="1.825341">
        <time>1970-01-01T00:00:00+00:00</time>
        <ele>1197.0</ele>
      </trkpt>
      <trkpt lat="42.13105" lon="1.82502">
        <time>1970-01-01T00:00:00+00:00</time>
        <ele>1199.0</ele>
      </trkpt>
      <trkpt lat="42.131107" lon="1.824925">
        <time>1970-01-01T00:00:00+00:00</time>
        <ele>1200.0</ele>
      </trkpt>
      <trkpt lat="42.131164" lon="1.824876">
        <time>1970-01-01T00:00:00+00:00</time>
        <ele>1200.0</ele>
      </trkpt>
      <trkpt lat="42.131164" lon="1.824769">
        <time>1970-01-01T00:00:00+00:00</time>
        <ele>1202.0</ele>
      </trkpt>
      <trkpt lat="42.131153" lon="1.824669">
        <time>1970-01-01T00:00:00+00:00</time>
        <ele>1203.0</ele>
      </trkpt>
    </trkseg>
  </trk>
</gpx>
